Lid_Strength_Index
-0 -1 -1 -1 -1 0 1 0 0 -1 0 0 -0 -0 -0 -1 -1 1 4 3 3 1 2 4 4 4 4 5 3 4 8 10 9 9 8 6 6 5 4 5 4 3 4 3 2
-1 -1 -1 -1 -1 -1 0 0 0 0 -0 0 0 0 0 0 2 5 1 -1 -2 -0 4 6 7 6 6 7 5 6 9 9 6 6 7 6 6 6 6 6 5 5 3 2 2
-1 -1 -1 -1 -1 -1 -1 -1 -1 0 0 0 0 0 1 1 6 8 -1 -1 -1 -1 2 4 6 7 8 7 7 6 8 6 6 5 5 6 6 5 6 7 5 5 4 3 3
-1 -1 -1 -1 -1 -1 -1 -1 -1 -1 -0 -0 0 0 1 3 14 4 -0 -1 -1 -1 1 4 7 9 9 10 8 9 7 7 6 5 6 6 5 6 6 5 4 3 3 3 3
-1 -1 -1 -1 -1 -1 -1 -1 -1 -2 -2 -1 -0 -0 1 7 8 3 1 0 0 1 3 4 6 8 10 9 9 9 8 7 6 6 5 6 6 6 6 4 4 4 3 3 3
-1 -1 -1 -1 -1 -1 -1 -1 -1 -1 -1 -1 -1 -0 3 8 4 3 3 2 2 2 3 3 5 4 6 9 9 9 9 8 7 7 6 7 6 6 5 4 4 4 4 3 3
-1 -1 -1 -1 -1 -1 -1 -1 -1 -1 -1 -1 -1 0 5 6 2 1 2 3 2 2 3 3 3 5 5 7 7 8 11 10 9 8 8 6 8 8 5 5 5 5 4 4 3
-1 -1 -1 -1 -1 -1 -1 -1 -2 -1 -1 -1 -1 1 6 2 2 2 1 3 2 2 3 2 2 4 6 5 6 9 10 13 10 9 8 8 13 9 5 5 5 5 5 4 3
-1 -1 -1 -1 -1 -1 -1 -2 -2 -1 -1 -1 1 3 7 0 3 2 1 3 3 2 2 3 3 6 6 9 10 9 12 12 11 8 8 8 12 9 8 7 7 5 4 5 4
-2 -1 -1 -1 -1 -1 -1 -1 -1 -1 -1 -1 1 5 4 5 3 3 1 1 3 3 5 5 6 8 8 10 14 12 11 10 11 10 9 9 10 9 9 9 9 8 6 5 4
-2 -2 -1 -1 -1 -1 -1 1 4 5 3 5 5 5 4 3 1 3 2 3 3 5 9 7 11 13 11 10 10 10 11 11 9 8 9 10 10 9 8 8 9 9 9 8 6
-2 -2 -1 -1 -1 -1 -0 4 4 3 7 3 4 4 3 3 6 4 2 6 7 10 7 9 12 10 10 10 10 11 12 12 10 9 10 10 10 9 7 8 8 7 8 8 8
-2 -2 -2 -2 -1 -0 2 3 0 1 7 6 4 5 4 3 6 6 3 5 8 10 9 11 9 8 10 10 11 11 12 13 13 11 10 11 12 11 9 8 7 7 6 7 6
-2 -2 -2 -2 1 1 3 -0 -0 0 12 9 7 5 4 4 7 3 3 5 8 10 9 10 7 9 9 11 10 13 10 10 11 13 15 11 17 12 10 10 9 8 8 6 6
-2 -2 -2 -2 1 3 1 -1 0 3 19 8 7 3 4 6 6 6 2 5 10 9 9 11 10 10 11 10 9 11 9 10 10 12 12 13 15 14 11 12 10 9 8 7 6
-1 -2 -2 -0 -0 0 -1 -1 2 13 19 11 7 8 8 7 6 6 6 4 5 9 8 9 7 8 9 8 8 8 9 10 10 12 17 14 14 15 13 12 11 9 9 8 7
-1 -1 -1 -1 3 -1 -0 3 13 17 9 13 11 9 9 9 8 8 9 11 12 15 15 11 10 8 7 10 9 9 11 17 18 19 18 14 14 15 11 10 10 10 9 8 7
-1 -1 -1 -1 -2 -1 2 10 17 13 12 8 8 9 11 8 9 9 10 12 9 10 12 15 16 10 8 9 12 12 11 15 19 18 17 14 17 15 11 9 9 9 8 8 7
-1 -0 1 -0 -2 -0 6 14 14 12 9 10 9 12 12 9 9 9 10 10 9 9 13 13 13 8 8 8 8 12 15 9 14 14 15 15 14 11 10 10 10 9 9 8 8
1 2 2 -1 -2 2 9 13 11 8 8 8 13 10 14 12 11 11 11 8 9 8 7 10 15 10 9 8 8 10 8 15 14 19 19 16 15 14 12 11 10 9 9 8 7
2 6 2 -1 -0 6 12 11 10 7 7 10 11 12 11 12 10 11 11 8 7 7 7 9 12 13 10 12 13 12 14 13 12 14 17 17 15 10 10 10 10 9 8 7 7
3 9 4 0 8 9 11 10 8 8 7 8 8 9 10 10 11 11 11 9 6 6 10 8 12 16 13 9 8 9 12 12 16 17 14 15 14 9 9 9 8 8 7 7 6
7 7 5 2 12 11 10 9 8 9 9 9 9 8 8 10 12 10 10 7 7 8 9 9 14 17 15 13 11 13 11 11 11 12 15 18 15 8 7 7 7 7 6 6 7
5 10 8 7 7 9 10 11 11 8 8 8 9 8 9 10 8 11 10 7 6 7 7 8 12 14 17 13 10 13 12 11 13 17 16 15 13 10 8 8 7 7 6 6 6
5 8 7 11 10 8 9 10 11 11 8 8 9 9 9 12 11 11 8 8 8 7 8 9 14 13 12 12 12 12 12 11 12 12 15 12 11 9 8 7 6 5 6 6 6
7 7 6 8 8 8 9 10 10 10 9 10 10 9 8 11 9 10 9 9 9 8 9 9 13 12 14 12 12 14 12 11 13 12 12 11 12 7 6 6 6 6 5 6 6
2 2 5 8 8 9 9 9 9 8 7 7 7 8 9 8 6 6 6 6 7 8 9 10 12 14 16 12 13 16 13 11 11 10 10 14 10 7 7 7 6 6 5 5 5